Regional Weather Roundup
Issued by NWS Sioux Falls, SD

Home | Current Version | Previous Version | Text Only | Print | Product List | Glossary Off
Versions: 1 2 3 4 5 6 7 8 9 10 11 12 13 14 15 16 17 18 19 20 21 22 23 24 25 26 27 28 29 30 31 32 33 34 35 36 37 38 39 40 41 42 43 44 45 46 47 48 49 50

000
ASUS43 KFSD 030710
RWRFSD

WEATHER ROUNDUP FOR SE SOUTH DAKOTA/SW MINNESOTA/NW IOWA
NATIONAL WEATHER SERVICE SIOUX FALLS SD
200 AM CDT THU SEP 03 2015

NOTE: "FAIR" INDICATES FEW OR NO CLOUDS BELOW 12,000 FEET WITH NO
SIGNIFICANT WEATHER AND OR OBSTRUCTIONS TO VISIBILITY.


SDZ038>040-050-052>070-030800-
SOUTHEAST SOUTH DAKOTA

CITY           SKY/WX    TMP DP  RH WIND       PRES   REMARKS
BROOKINGS      CLEAR     72  68  88 SE10      29.86S
CHAMBERLAIN    CLEAR     71  65  83 SE7       29.76S
HURON          CLEAR     73  70  90 SE10      29.76S
MADISON        FAIR      70  70 100 SE8       29.85S
MITCHELL       CLEAR     72  70  93 SE9       29.78F
SIOUX FALLS    CLEAR     72  70  93 SE6       29.83F
WINNER         FAIR      79  59  50 S14       29.77S
YANKTON        CLEAR     72  70  94 E3        29.80S
$$

MNZ071-072-080-081-089-090-097-098-030800-
SOUTHWEST MINNESOTA

CITY           SKY/WX    TMP DP  RH WIND       PRES   REMARKS
FAIRMONT       CLEAR     70  61  73 S7        29.88S
JACKSON        CLEAR     72  70  94 SE6       29.89S
LUVERNE        CLEAR     70  68  94 CALM      29.86S
MARSHALL       CLEAR     70  66  88 SE7       29.86F
MONTEVIDEO     CLEAR     70  70 100 SE7       29.87S FOG
PIPESTONE      CLEAR     72  70  94 S7        29.87S
REDWOOD FALLS  FOG       71  70  96 E7        29.86F VSB 1
TRACY          CLEAR     70  69  97 SE6       29.87S FOG
WINDOM         CLEAR     72  70  94 CALM      29.88F
WORTHINGTON    CLEAR     68  64  88 S6        29.87F
$$

IAZ001>003-012>014-020>022-031-032-NEZ013-014-SDZ071-030800-
NORTHWEST IOWA

CITY           SKY/WX    TMP DP  RH WIND       PRES   REMARKS
CHEROKEE       CLEAR     70  70  99 S5        29.87S
DENISON        CLEAR     73  70  88 VRB7      29.87S
ESTHERVILLE    CLEAR     67  66  97 SE5       29.88F
LE MARS        CLEAR     73  72  94 S8        29.85S
ORANGE CITY    CLEAR     72  70  94 SE3       29.86S
SHELDON        CLEAR     72  70  94 SE5       29.85F
SIOUX CITY     CLEAR     71  67  87 E7        29.84S
SPENCER        CLEAR     71  67  87 S5        29.87F FOG
STORM LAKE     CLEAR     70  70 100 S8        29.89F
$$

ABBREVIATIONS USED IN REMARKS
   TC - TEMPERATURE IN CELSIUS
  WCI - WIND CHILL INDEX
   HX - HEAT INDEX
  VSB - VISIBILITY




USA.gov is the U.S. government's official web portal to all federal, state and local government web resources and services.